USA761 UZTT-UZFA

Flight info

Callsign USA761
Flight time N/A
Altitude 19000
Route TISIB2F TISIB L163 DIKRI DIKRI3V
Aircraft AT76/M-SDFGIRY/S

Departure

Time 2026-04-10 14:51
Airport Tashkent International Airport (UZTT)

Arrival

Time N/A
Airport Andijan International Airport (UZFA)
Time Latitude Longitude Altitude Speed Heading
2026-04-10 14:37 41.25228 69.26603 1422 ft 0 kts 180°
2026-04-10 14:46 41.25224 69.26603 1422 ft 1 kts 180°
2026-04-10 14:46 41.25208 69.26603 1422 ft 3 kts 180°
2026-04-10 14:47 41.25193 69.26587 1422 ft 4 kts 255°
2026-04-10 14:47 41.25192 69.26543 1422 ft 5 kts 270°
2026-04-10 14:47 41.25195 69.26489 1422 ft 7 kts 284°
2026-04-10 14:47 41.25201 69.26422 1422 ft 8 kts 270°
2026-04-10 14:48 41.25201 69.26349 1422 ft 8 kts 271°
2026-04-10 14:48 41.25201 69.26275 1422 ft 7 kts 270°
2026-04-10 14:48 41.25225 69.26241 1422 ft 7 kts
2026-04-10 14:48 41.25264 69.26218 1422 ft 7 kts 294°
2026-04-10 14:49 41.25286 69.26148 1422 ft 9 kts 292°
2026-04-10 14:49 41.25311 69.26066 1422 ft 10 kts 292°
2026-04-10 14:49 41.25339 69.25980 1422 ft 10 kts 305°
2026-04-10 14:49 41.25405 69.25956 1422 ft 10 kts 21°
2026-04-10 14:50 41.25423 69.26021 1422 ft 8 kts 80°
2026-04-10 14:50 41.25428 69.26060 1422 ft 0 kts 82°
2026-04-10 14:50 41.25428 69.26061 1422 ft 0 kts 82°
2026-04-10 14:50 41.25450 69.26274 1422 ft 61 kts 82°
2026-04-10 14:51 41.25552 69.27198 1427 ft 121 kts 81°
2026-04-10 14:51 41.25878 69.29831 2168 ft 139 kts 81°
2026-04-10 14:51 41.26042 69.31194 2386 ft 160 kts 82°
2026-04-10 14:52 41.26210 69.32725 2716 ft 174 kts 82°
2026-04-10 14:52 41.26384 69.34335 3030 ft 185 kts 82°
2026-04-10 14:52 41.26575 69.36116 3354 ft 195 kts 82°
2026-04-10 14:52 41.26768 69.37907 3661 ft 203 kts 83°
2026-04-10 14:53 41.26861 69.38774 3804 ft 206 kts 83°
2026-04-10 14:53 41.27065 69.40681 4110 ft 212 kts 83°
2026-04-10 14:53 41.27254 69.42454 4385 ft 217 kts 83°
2026-04-10 14:53 41.27404 69.43864 4599 ft 220 kts 84°
2026-04-10 14:54 41.27562 69.45347 4819 ft 224 kts 84°
2026-04-10 14:54 41.27784 69.47430 5123 ft 227 kts 84°
2026-04-10 14:54 41.28008 69.49540 5426 ft 231 kts 84°
2026-04-10 14:54 41.28230 69.51628 5756 ft 232 kts 84°
2026-04-10 14:55 41.28456 69.53764 6103 ft 234 kts 84°
2026-04-10 14:55 41.28646 69.55782 6430 ft 235 kts 85°
2026-04-10 14:55 41.28844 69.57942 6779 ft 236 kts 85°
2026-04-10 14:55 41.28956 69.59176 6977 ft 237 kts 85°
2026-04-10 14:56 41.29126 69.61041 7277 ft 238 kts 85°
2026-04-10 14:56 41.29205 69.63216 7587 ft 236 kts 104°
2026-04-10 14:56 41.28528 69.65181 7970 ft 232 kts 123°
2026-04-10 14:56 41.27733 69.66862 8295 ft 232 kts 126°
2026-04-10 14:57 41.26912 69.68523 8618 ft 233 kts 126°
2026-04-10 14:57 41.26198 69.69960 8897 ft 234 kts 127°
2026-04-10 14:57 41.25306 69.71749 9243 ft 234 kts 126°
2026-04-10 14:57 41.24287 69.73795 9637 ft 235 kts 126°
2026-04-10 14:58 41.23408 69.75556 9976 ft 236 kts 126°
2026-04-10 14:58 41.22598 69.77195 10287 ft 237 kts 124°
2026-04-10 14:58 41.21983 69.79172 10625 ft 239 kts 114°
2026-04-10 14:58 41.21421 69.81245 10971 ft 240 kts 112°
2026-04-10 14:59 41.20862 69.83333 11370 ft 239 kts 112°
2026-04-10 14:59 41.20311 69.85389 11763 ft 237 kts 112°
2026-04-10 14:59 41.19760 69.87447 12158 ft 237 kts 112°
2026-04-10 14:59 41.19236 69.89398 12534 ft 236 kts 112°
2026-04-10 15:00 41.18690 69.91433 12927 ft 235 kts 112°
2026-04-10 15:00 41.18373 69.92612 13155 ft 235 kts 113°
2026-04-10 15:00 41.18052 69.93807 13386 ft 235 kts 113°
2026-04-10 15:00 41.17462 69.96003 13787 ft 228 kts 113°
2026-04-10 15:01 41.16898 69.98107 14151 ft 204 kts 114°
2026-04-10 15:01 41.16467 69.99725 14395 ft 167 kts 114°
2026-04-10 15:01 41.16101 70.01038 14199 ft 148 kts 117°
2026-04-10 15:01 41.15763 70.02344 13263 ft 157 kts 114°
2026-04-10 15:02 41.15311 70.03640 12333 ft 162 kts 123°
2026-04-10 15:02 41.14748 70.04841 11753 ft 149 kts 129°
2026-04-10 15:02 41.14142 70.05994 11077 ft 158 kts 125°
2026-04-10 15:02 41.13736 70.07115 10679 ft 161 kts 115°
2026-04-10 15:03 41.13497 70.08053 10470 ft 162 kts 103°
2026-04-10 15:03 41.13378 70.09364 10512 ft 148 kts 103°
2026-04-10 15:03 41.13181 70.10689 10548 ft 143 kts 108°
2026-04-10 15:03 41.12933 70.11987 10490 ft 154 kts 109°
2026-04-10 15:04 41.12609 70.13459 10406 ft 174 kts 110°
2026-04-10 15:04 41.12218 70.15089 10336 ft 196 kts 111°
2026-04-10 15:04 41.11774 70.16853 10477 ft 211 kts 111°
2026-04-10 15:04 41.11272 70.18777 10641 ft 228 kts 111°
2026-04-10 15:05 41.10170 70.22897 11177 ft 245 kts 112°
2026-04-10 15:05 41.09716 70.25035 11577 ft 245 kts 109°
2026-04-10 15:05 41.09050 70.27143 11985 ft 244 kts 115°
2026-04-10 15:06 41.08390 70.29250 12390 ft 245 kts 114°
2026-04-10 15:06 41.07750 70.31336 12788 ft 245 kts 114°
2026-04-10 15:06 41.07114 70.33431 13186 ft 245 kts 114°
2026-04-10 15:06 41.06480 70.35525 13583 ft 245 kts 114°
2026-04-10 15:07 41.05847 70.37622 13981 ft 245 kts 114°
2026-04-10 15:07 41.05211 70.39728 14379 ft 246 kts 114°
2026-04-10 15:07 41.04572 70.41843 14779 ft 246 kts 114°
2026-04-10 15:07 41.03933 70.43958 15179 ft 246 kts 114°
2026-04-10 15:08 41.03306 70.46031 15571 ft 246 kts 114°
2026-04-10 15:08 41.02666 70.48146 15970 ft 246 kts 114°
2026-04-10 15:08 41.02029 70.50251 16366 ft 246 kts 114°
2026-04-10 15:08 41.01390 70.52360 16764 ft 247 kts 114°
2026-04-10 15:09 41.00751 70.54462 16967 ft 255 kts 114°
2026-04-10 15:09 41.00079 70.56671 17004 ft 267 kts 114°
2026-04-10 15:09 40.99362 70.59029 17008 ft 277 kts 114°
2026-04-10 15:09 40.98636 70.61416 17007 ft 285 kts 113°
2026-04-10 15:10 40.97890 70.63867 17005 ft 291 kts 113°
2026-04-10 15:10 40.97504 70.65134 17004 ft 293 kts 114°
2026-04-10 15:10 40.96467 70.68539 17004 ft 298 kts 114°
2026-04-10 15:11 40.95196 70.72705 17002 ft 302 kts 113°
2026-04-10 15:11 40.94416 70.75258 17002 ft 303 kts 113°
2026-04-10 15:11 40.93617 70.77870 17002 ft 304 kts 113°
2026-04-10 15:11 40.92817 70.80482 17001 ft 305 kts 113°
2026-04-10 15:12 40.92017 70.83092 17001 ft 305 kts 113°
2026-04-10 15:12 40.91244 70.85613 17001 ft 306 kts 113°
2026-04-10 15:12 40.90437 70.88238 17001 ft 306 kts 113°
2026-04-10 15:12 40.89627 70.90874 17002 ft 307 kts 113°
2026-04-10 15:13 40.88833 70.93456 17003 ft 307 kts 113°
2026-04-10 15:13 40.88024 70.96079 17003 ft 308 kts 113°
2026-04-10 15:13 40.87223 70.98679 17003 ft 308 kts 113°
2026-04-10 15:13 40.86414 71.01298 17003 ft 308 kts 113°
2026-04-10 15:14 40.85608 71.03906 17003 ft 308 kts 113°
2026-04-10 15:14 40.84793 71.06541 17003 ft 309 kts 113°
2026-04-10 15:14 40.83987 71.09146 17003 ft 309 kts 113°
2026-04-10 15:14 40.83174 71.11771 17003 ft 309 kts 113°
2026-04-10 15:15 40.82357 71.14407 17003 ft 309 kts 113°
2026-04-10 15:15 40.81543 71.17029 17003 ft 309 kts 113°
2026-04-10 15:15 40.80736 71.19624 17003 ft 309 kts 113°
2026-04-10 15:15 40.79915 71.22263 17002 ft 309 kts 113°
2026-04-10 15:16 40.79102 71.24876 17002 ft 309 kts 113°
2026-04-10 15:16 40.78283 71.27480 17002 ft 309 kts 113°
2026-04-10 15:16 40.77458 71.30095 17002 ft 309 kts 113°
2026-04-10 15:16 40.76635 71.32703 17015 ft 308 kts 113°
2026-04-10 15:17 40.75825 71.35272 17122 ft 292 kts 113°
2026-04-10 15:17 40.75075 71.37644 17131 ft 269 kts 114°
2026-04-10 15:17 40.74398 71.39789 17124 ft 241 kts 114°
2026-04-10 15:17 40.73790 71.41710 17093 ft 211 kts 114°
2026-04-10 15:18 40.73259 71.43386 16884 ft 187 kts 114°
2026-04-10 15:18 40.72798 71.44841 16698 ft 157 kts 114°
2026-04-10 15:18 40.72414 71.46058 16273 ft 144 kts 112°
2026-04-10 15:18 40.72054 71.47305 15371 ft 145 kts 111°
2026-04-10 15:19 40.71606 71.48472 14260 ft 155 kts 113°
2026-04-10 15:19 40.71275 71.49731 13255 ft 146 kts 103°
2026-04-10 15:19 40.70993 71.50874 11965 ft 138 kts 88°
2026-04-10 15:19 40.71099 71.51618 9260 ft 156 kts 144°